Regional Weather Roundup
Issued by NWS

Home | Current Version | Previous Version | Graphics & Text | Print | Product List | Glossary On
Versions: 1 2 3 4 5 6 7 8 9 10 11 12 13 14 15 16 17 18 19 20 21 22 23 24 25 26 27 28 29 30 31 32 33 34 35 36 37 38 39 40 41 42 43 44 45 46 47 48 49 50
000
ASUS43 KTOP 280559
RWRKS

WEATHER ROUNDUP FOR KANSAS
NATIONAL WEATHER SERVICE GOODLAND KS
100 AM CDT THU MAY 28 2015

NOTE:  "FAIR" INDICATES FEW OR NO CLOUDS BELOW 12,000 FEET WITH NO
SIGNIFICANT WEATHER AND/OR OBSTRUCTIONS TO VISIBILITY.

KSZ001>006-013>018-027>032-041>047-280700-
NORTHWEST KANSAS

CITY           SKY/WX    TMP DP  RH WIND       PRES   REMARKS
GOODLAND       MOCLDY    58  56  93 SE17G25   30.06F
6HR MIN TEMP:  58; 6HR MAX TEMP:  69; 6HR PCP:  0.02;

HAYS           CLOUDY    63  52  67 CALM      30.05R
HILL CITY      CLOUDY    64  61  90 S6        30.02F
6HR MIN TEMP:  64; 6HR MAX TEMP:  69; 6HR PCP:  0.01;

RUSSELL        LGT RAIN  62  57  83 S26G40    29.99F
6HR MIN TEMP:  62; 6HR MAX TEMP:  72; 6HR PCP:  0.03;

$$

KSZ061>065-074>080-084>089-280700-
SOUTHWEST KANSAS

CITY           SKY/WX    TMP DP  RH WIND       PRES   REMARKS
DODGE CITY     CLOUDY    61  57  87 S10       30.05F
6HR MIN TEMP:  60; 6HR MAX TEMP:  72; 6HR PCP:  1.11;

ELKHART          N/A     60  55  83 SE12        N/A
GARDEN CITY    MOCLDY    57  56  96 SE12      30.05S
6HR MIN TEMP:  57; 6HR MAX TEMP:  71; 6HR PCP:  0.51;

GREAT BEND     CLOUDY    61  55  82 E8        30.06F
LIBERAL        CLOUDY    63  55  77 E12       30.06F
$$

KSZ066>073-081>083-090>101-280700-
SOUTHEAST KANSAS

CITY           SKY/WX    TMP DP  RH WIND       PRES   REMARKS
CHANUTE        CLOUDY    70  62  76 E6        30.08R
6HR MIN TEMP:  69; 6HR MAX TEMP:  81;

COFFEYVILLE    CLOUDY    70  66  87 S5        30.07R
6HR MIN TEMP:  69; 6HR MAX TEMP:  82;

HUTCHINSON     CLOUDY    67  60  78 NW20G28   30.10R
6HR MIN TEMP:  67; 6HR MAX TEMP:  79; 6HR PCP:  0.04;

NEWTON         CLOUDY    70  63  78 SE6       30.08F
PARSONS        CLOUDY    69  67  93 CALM      30.09R
6HR MIN TEMP:  68; 6HR MAX TEMP:  82;

WICHITA INTL   CLOUDY    72  67  84 S7        30.07S
6HR MIN TEMP:  72; 6HR MAX TEMP:  80;

WICHITA JABRA  CLOUDY    70  66  87 SE3       30.06F
6HR MIN TEMP:  70; 6HR MAX TEMP:  78;

WINFIELD       CLOUDY    70  67  90 S6        30.08S
6HR MIN TEMP:  70; 6HR MAX TEMP:  80;

$$

KSZ007>012-019>026-033>040-048>060-102>105-280700-
NORTHEAST KANSAS

CITY           SKY/WX    TMP DP  RH WIND       PRES   REMARKS
EMPORIA        CLOUDY    67  62  84 SE8       30.08S
6HR MIN TEMP:  67; 6HR MAX TEMP:  77;

LAWRENCE       CLOUDY    64  58  80 SE5       30.10R
6HR MIN TEMP:  64; 6HR MAX TEMP:  79;

MANHATTAN      CLOUDY    70  59  68 SE5       30.06F
6HR MIN TEMP:  66; 6HR MAX TEMP:  78;

OLATHE IND     CLOUDY    67  57  70 SE6       30.11R
6HR MIN TEMP:  67; 6HR MAX TEMP:  79;

OLATHE EXE     CLOUDY    67  56  67 SE6       30.10R
6HR MIN TEMP:  67; 6HR MAX TEMP:  78;

SALINA         TSTM      66  62  87 W17G32    30.07R
6HR MIN TEMP:  66; 6HR MAX TEMP:  78; 6HR PCP:  0.28;

TOPEKA BILLARD CLOUDY    66  59  78 CALM      30.09R
6HR MIN TEMP:  65; 6HR MAX TEMP:  77;

TOPEKA FORBES  CLOUDY    67  58  72 E5        30.09R
6HR MIN TEMP:  66; 6HR MAX TEMP:  78;

$$



USA.gov is the U.S. government's official web portal to all federal, state and local government web resources and services.